Jackson, Tennessee, United States (38301)
Lat: 35.61N, Lon: 88.81W
Wx Zone: TNZ052
Local Info
Past Weather Observations for Friday, July 22, 2016

NOTE: This archive is for the closest National Weather Service station to Jackson. Information may differ from the station used for current weather conditions.

Click here for Long-term Archive

Time Weather Temperature Dewpoint Humidity Pressure Winds Precip Visibility
23:53
Clear
75°F / 24°C 73°F / 23°C 94% 30.01 in
(1016 mb)
Calm - 10SM
22:53
Clear
75°F / 24°C 73°F / 23°C 94% 30.01 in
(1016 mb)
Calm - 10SM
21:53
Partly Cloudy
79°F / 26°C 72°F / 22°C 79% 30.04 in
(1017 mb)
Calm - 10SM
20:53
Partly Cloudy
79°F / 26°C 72°F / 22°C 79% 30.04 in
(1017 mb)
SSE 5.8 mph
(SSE 9 kph)
0.00 in
(0.00 mm)
10SM
19:53
Overcast
Thunder Storms
82°F / 28°C 75°F / 24°C 79% 30.04 in
(1017 mb)
W 12.7 mph
(W 20 kph)
- 10SM
19:48
Mostly Cloudy
Thunder Storms
82°F / 28°C 75°F / 24°C 79% 30.01 in
(1016 mb)
Calm - 10SM
18:53
Partly Cloudy
82°F / 28°C 75°F / 24°C 79% 30.01 in
(1016 mb)
SE 3.5 mph
(SE 6 kph)
- 10SM
17:53
Clear
86°F / 30°C 77°F / 25°C 75% 30.01 in
(1016 mb)
Variable 3.5 mph
(Variable 6 kph)
- 10SM
16:53
Clear
88°F / 31°C 75°F / 24°C 66% 30.01 in
(1016 mb)
NE 4.6 mph
(NE 7 kph)
- 10SM
15:53
Clear
86°F / 30°C 72°F / 22°C 62% 30.01 in
(1016 mb)
Variable 3.5 mph
(Variable 6 kph)
- 10SM
14:53
Clear
81°F / 27°C 72°F / 22°C 74% 30.04 in
(1017 mb)
ESE 3.5 mph
(ESE 6 kph)
0.00 in
(0.00 mm)
10SM
14:46
Clear
81°F / 27°C 72°F / 22°C 74% 30.04 in
(1017 mb)
Variable 4.6 mph
(Variable 7 kph)
0.00 in
(0.00 mm)
10SM
14:15
Partly Cloudy
Thunder Storms
82°F / 28°C 73°F / 23°C 74% 30.06 in
(1018 mb)
SSE 3.5 mph
(SSE 6 kph)
0.00 in
(0.00 mm)
10SM
13:53
Mostly Cloudy
Thunder Storms
81°F / 27°C 73°F / 23°C 79% 30.06 in
(1018 mb)
NE 8.1 mph
(NE 13 kph)
0.00 in
(0.00 mm)
10SM
13:35
Partly Cloudy
Thunder Storms
84°F / 29°C 73°F / 23°C 70% 30.06 in
(1018 mb)
NE 20.7 mph
(NE 33 kph)
- 10SM
13:15
Partly Cloudy
Thunder Storms
99°F / 37°C 75°F / 24°C 47% 30.04 in
(1017 mb)
NNW 11.5 mph
(NNW 19 kph)
- 10SM
12:53
Partly Cloudy
Thunder Storms
97°F / 36°C 75°F / 24°C 50% 30.04 in
(1017 mb)
Variable 4.6 mph
(Variable 7 kph)
- 10SM
11:53
Partly Cloudy
97°F / 36°C 75°F / 24°C 50% 30.06 in
(1018 mb)
WNW 5.8 mph
(WNW 9 kph)
- 10SM
10:53
Partly Cloudy
95°F / 35°C 75°F / 24°C 53% 30.09 in
(1019 mb)
Variable 4.6 mph
(Variable 7 kph)
- 10SM
09:53
Clear
93°F / 34°C 75°F / 24°C 56% 30.09 in
(1019 mb)
Variable 3.5 mph
(Variable 6 kph)
- 10SM
08:53
Clear
91°F / 33°C 75°F / 24°C 59% 30.09 in
(1019 mb)
SSW 5.8 mph
(SSW 9 kph)
- 10SM
07:53
Clear
88°F / 31°C 77°F / 25°C 70% 30.09 in
(1019 mb)
E 3.5 mph
(E 6 kph)
- 10SM
06:53
Clear
82°F / 28°C 75°F / 24°C 79% 30.09 in
(1019 mb)
Calm - 10SM
05:53
Clear
75°F / 24°C 73°F / 23°C 94% 30.06 in
(1018 mb)
Calm - 7SM
04:04
Clear
Fog And Mist
75°F / 24°C 73°F / 23°C 94% 30.06 in
(1018 mb)
Calm - 3SM
04:00
Clear
Fog And Mist
73°F / 23°C 73°F / 23°C 100% 30.06 in
(1018 mb)
Calm - 1 1/2SM
03:53
Clear
Fog And Mist
75°F / 24°C 73°F / 23°C 94% 30.06 in
(1018 mb)
Calm - 2SM
02:53
Clear
75°F / 24°C 73°F / 23°C 94% 30.06 in
(1018 mb)
Calm - 8SM
01:53
Clear
Fog And Mist
75°F / 24°C 75°F / 24°C 100% 30.06 in
(1018 mb)
Calm - 6SM
00:53
Clear
75°F / 24°C 75°F / 24°C 100% 30.06 in
(1018 mb)
Calm - 8SM
Time Weather Temperature Dewpoint Humidity Pressure Winds Precip Visibility


Weather for websites

WeatherForYou.com, LLC is not responsible for any damages or problems caused by this service. Current weather conditions are obtained from the closest station including government and personal stations which may have varying degrees of accuracy. Weather forecasts are derived from the NOAA NDFD. Like all things, this site belongs to Jesus Christ... He just trusts us to maintain it. If you have any questions or comments email webmaster@weatherforyou.com

Copyright © 2016, WeatherForYou.com LLC. All rights reserved.